This is the latest recevied weather packets stored in our database for station/object W4KAB. If no packets are shown the sender has not sent any weather packets the latest 10 day(s).
| Time | Temp. | Humidity | Pressure | Rain* | Wind** | Luminosity | Snow |
|---|---|---|---|---|---|---|---|
| 1777638560 | 10° C | 76% | 1017.8 hPa | 0 mm | - | 49 W/m² | - |
| 1777638256 | 10° C | 73% | 1017.6 hPa | 0 mm | - | 38 W/m² | - |
| 1777637952 | 10° C | 79% | 1017.6 hPa | 0 mm | - | 30 W/m² | - |
| 1777637649 | 9.44° C | 77% | 1017.7 hPa | 0 mm | - | 32 W/m² | - |
| 1777637346 | 9.44° C | 77% | 1017.4 hPa | 0 mm | - | 25 W/m² | - |
| 1777637043 | 9.44° C | 79% | 1017.4 hPa | 0 mm | - | 30 W/m² | - |
| 1777636738 | 9.44° C | 81% | 1017.6 hPa | 0 mm | - | 24 W/m² | - |
| 1777636435 | 8.89° C | 80% | 1017.5 hPa | 0 mm | - | 24 W/m² | - |
| 1777636130 | 8.89° C | 80% | 1017.5 hPa | 0 mm | - | 21 W/m² | - |
| 1777635826 | 8.89° C | 79% | 1017.2 hPa | 0 mm | - | 20 W/m² | - |
| 1777635522 | 8.89° C | 78% | 1017.3 hPa | 0 mm | - | 12 W/m² | - |
| 1777635219 | 8.89° C | 78% | 1017.5 hPa | 0 mm | - | 13 W/m² | - |
| 1777634916 | 8.89° C | 77% | 1017.4 hPa | 0 mm | - | 13 W/m² | - |
| 1777634613 | 8.89° C | 78% | 1017.4 hPa | 0 mm | - | 9 W/m² | - |
| 1777634311 | 8.89° C | 76% | 1017.4 hPa | 0 mm | - | 6 W/m² | - |
| 1777634006 | 8.89° C | 77% | 1017.3 hPa | 0 mm | - | 6 W/m² | - |
| 1777633703 | 8.89° C | 77% | 1017.4 hPa | 0 mm | - | 6 W/m² | - |
| 1777633402 | 8.89° C | 76% | 1017.2 hPa | 0 mm | - | 5 W/m² | - |
| 1777633099 | 8.89° C | 77% | 1017.4 hPa | 0 mm | - | 3 W/m² | - |
| 1777632795 | 8.89° C | 76% | 1017.2 hPa | 0 mm | - | 2 W/m² | - |
| 1777632491 | 8.89° C | 76% | 1017.3 hPa | 0 mm | - | 1 W/m² | - |
| 1777632189 | 8.89° C | 75% | 1017.1 hPa | 0 mm | - | 0 W/m² | - |
| 1777631885 | 8.89° C | 75% | 1017.2 hPa | 0 mm | - | 0 W/m² | - |
| 1777631584 | 9.44° C | 75% | 1017 hPa | 0 mm | - | 0 W/m² | - |
| 1777631281 | 8.89° C | 72% | 1017 hPa | 0 mm | - | 0 W/m² | - |
* Rain latest hour (hover to see other rain measurements)
** Current wind speed in m/s (hover to see current wind gust speed)